TOM888 EFKT-ENVA

Flight info

Callsign TOM888
Flight time 1h 16m
Altitude 28000
Route EXUTI DCT VAGAS M745 AGMOL Z108 NAMIG DCT NUPGO
Aircraft B738/M-SDE2E3FGHIRWXY/LB1

Departure

Time 2026-04-27 07:49
Airport Kittilä International Airport (EFKT)

Arrival

Time 2026-04-27 09:06
Airport Trondheim Airport, Værnes (ENVA)
Time Latitude Longitude Altitude Speed Heading
2026-04-27 07:13 67.69761 24.85559 642 ft 0 kts 76°
2026-04-27 07:41 67.69756 24.85511 638 ft 4 kts 76°
2026-04-27 07:41 67.69751 24.85454 637 ft 3 kts 77°
2026-04-27 07:42 67.69750 24.85394 638 ft 4 kts 128°
2026-04-27 07:42 67.69769 24.85364 642 ft 4 kts 166°
2026-04-27 07:42 67.69778 24.85358 636 ft 0 kts 166°
2026-04-27 07:43 67.69778 24.85359 636 ft 0 kts 166°
2026-04-27 07:45 67.69769 24.85364 642 ft 4 kts 166°
2026-04-27 07:45 67.69714 24.85400 636 ft 10 kts 166°
2026-04-27 07:45 67.69642 24.85446 641 ft 10 kts 166°
2026-04-27 07:46 67.69573 24.85491 639 ft 10 kts 168°
2026-04-27 07:46 67.69529 24.85377 640 ft 10 kts 253°
2026-04-27 07:46 67.69512 24.85205 644 ft 10 kts 256°
2026-04-27 07:46 67.69448 24.85113 641 ft 15 kts 170°
2026-04-27 07:47 67.69321 24.85195 643 ft 23 kts 166°
2026-04-27 07:47 67.69151 24.85304 650 ft 21 kts 166°
2026-04-27 07:47 67.69066 24.85476 651 ft 12 kts 158°
2026-04-27 07:47 67.69026 24.85416 652 ft 4 kts 270°
2026-04-27 07:48 67.69050 24.85371 651 ft 0 kts 345°
2026-04-27 07:49 67.69117 24.85328 649 ft 41 kts 346°
2026-04-27 07:49 67.69669 24.84968 637 ft 119 kts 346°
2026-04-27 07:49 67.70632 24.84334 978 ft 149 kts 346°
2026-04-27 07:49 67.71592 24.83712 2119 ft 143 kts 347°
2026-04-27 07:50 67.72602 24.83122 2850 ft 161 kts 348°
2026-04-27 07:50 67.73802 24.82417 3162 ft 191 kts 348°
2026-04-27 07:50 67.75162 24.81613 3623 ft 206 kts 348°
2026-04-27 07:50 67.76644 24.80734 4001 ft 228 kts 348°
2026-04-27 07:51 67.78228 24.79789 4804 ft 237 kts 348°
2026-04-27 07:51 67.79839 24.78824 5861 ft 238 kts 348°
2026-04-27 07:51 67.81462 24.77850 6854 ft 241 kts 348°
2026-04-27 07:51 67.83106 24.76863 7800 ft 244 kts 348°
2026-04-27 07:52 67.84778 24.75857 8739 ft 248 kts 348°
2026-04-27 07:52 67.86452 24.74847 9685 ft 252 kts 348°
2026-04-27 07:52 67.88177 24.73806 10483 ft 260 kts 348°
2026-04-27 07:52 67.90000 24.72362 10714 ft 289 kts 335°
2026-04-27 07:53 67.91781 24.69415 10985 ft 313 kts 328°
2026-04-27 07:53 67.93617 24.66107 11600 ft 323 kts 327°
2026-04-27 07:53 67.95494 24.62727 12450 ft 327 kts 327°
2026-04-27 07:53 67.97386 24.59343 13362 ft 331 kts 327°
2026-04-27 07:54 67.99313 24.55919 14231 ft 335 kts 328°
2026-04-27 07:54 68.01245 24.52500 15009 ft 341 kts 328°
2026-04-27 07:54 68.03234 24.48982 15805 ft 346 kts 328°
2026-04-27 07:54 68.05253 24.45407 16616 ft 351 kts 328°
2026-04-27 07:55 68.07226 24.41471 17360 ft 359 kts 316°
2026-04-27 07:55 68.08629 24.35855 18101 ft 371 kts 295°
2026-04-27 07:55 68.09234 24.29085 18845 ft 381 kts 276°
2026-04-27 07:55 68.08982 24.21971 19547 ft 391 kts 256°
2026-04-27 07:56 68.07984 24.15147 20311 ft 396 kts 249°
2026-04-27 07:56 68.06859 24.08368 20986 ft 401 kts 248°
2026-04-27 07:56 68.05706 24.01635 21592 ft 406 kts 248°
2026-04-27 07:56 68.04518 23.94736 22228 ft 411 kts 248°
2026-04-27 07:57 68.03321 23.87759 22855 ft 415 kts 248°
2026-04-27 07:57 68.02118 23.80706 23483 ft 419 kts 248°
2026-04-27 07:57 68.00909 23.73584 24032 ft 423 kts 248°
2026-04-27 07:57 67.99691 23.66397 24531 ft 427 kts 248°
2026-04-27 07:58 67.98463 23.59155 25002 ft 431 kts 248°
2026-04-27 07:58 67.97221 23.51849 25501 ft 434 kts 248°
2026-04-27 07:58 67.95984 23.44592 25963 ft 438 kts 248°
2026-04-27 07:58 67.94717 23.37183 26416 ft 442 kts 248°
2026-04-27 07:59 67.93435 23.29715 26852 ft 445 kts 248°
2026-04-27 07:59 67.90833 23.14654 27758 ft 451 kts 248°
2026-04-27 07:59 67.89517 23.07081 28161 ft 454 kts 248°
2026-04-27 08:00 67.86851 22.91820 28138 ft 453 kts 248°
2026-04-27 08:00 67.84219 22.76886 28150 ft 450 kts 248°
2026-04-27 08:01 67.81553 22.61846 28159 ft 452 kts 248°
2026-04-27 08:01 67.78862 22.46782 28158 ft 453 kts 247°
2026-04-27 08:02 67.76154 22.31740 28152 ft 453 kts 247°
2026-04-27 08:02 67.73457 22.16870 28159 ft 452 kts 247°
2026-04-27 08:03 67.70734 22.01965 28145 ft 451 kts 247°
2026-04-27 08:03 67.68004 21.87131 28155 ft 450 kts 247°
2026-04-27 08:04 67.65267 21.72357 28160 ft 450 kts 247°
2026-04-27 08:04 67.62529 21.57689 28167 ft 451 kts 247°
2026-04-27 08:05 67.59755 21.42933 28167 ft 451 kts 247°
2026-04-27 08:05 67.56964 21.28196 28167 ft 452 kts 246°
2026-04-27 08:06 67.54156 21.13473 28169 ft 452 kts 246°
2026-04-27 08:06 67.51337 20.98796 28171 ft 452 kts 246°
2026-04-27 08:07 67.48526 20.84265 28164 ft 451 kts 246°
2026-04-27 08:07 67.45684 20.69676 28164 ft 451 kts 246°
2026-04-27 08:08 67.42831 20.55131 28180 ft 451 kts 247°
2026-04-27 08:08 67.39966 20.40616 28186 ft 451 kts 247°
2026-04-27 08:09 67.37085 20.26113 28187 ft 452 kts 247°
2026-04-27 08:09 67.33635 20.12527 28192 ft 460 kts 232°
2026-04-27 08:10 67.28817 20.01470 28193 ft 464 kts 223°
2026-04-27 08:10 67.23828 19.90851 28186 ft 464 kts 224°
2026-04-27 08:11 67.18862 19.80176 28193 ft 465 kts 224°
2026-04-27 08:11 67.13938 19.69538 28187 ft 466 kts 224°
2026-04-27 08:12 67.08973 19.58849 28192 ft 466 kts 224°
2026-04-27 08:12 67.03997 19.48202 28198 ft 466 kts 224°
2026-04-27 08:13 66.99015 19.37602 28183 ft 466 kts 224°
2026-04-27 08:13 66.94022 19.27038 28199 ft 466 kts 224°
2026-04-27 08:14 66.89040 19.16586 28201 ft 467 kts 224°
2026-04-27 08:14 66.84006 19.06095 28193 ft 469 kts 225°
2026-04-27 08:15 66.78942 18.95589 28209 ft 472 kts 225°
2026-04-27 08:15 66.73838 18.85051 28205 ft 475 kts 225°
2026-04-27 08:16 66.68738 18.74583 28203 ft 476 kts 225°
2026-04-27 08:16 66.63587 18.64073 28213 ft 476 kts 224°
2026-04-27 08:17 66.58439 18.53624 28199 ft 475 kts 224°
2026-04-27 08:17 66.53304 18.43258 28207 ft 472 kts 224°
2026-04-27 08:18 66.48182 18.32972 28214 ft 472 kts 224°
2026-04-27 08:18 66.43084 18.22789 28206 ft 473 kts 225°
2026-04-27 08:19 66.37930 18.12545 28222 ft 475 kts 225°
2026-04-27 08:19 66.32738 18.02284 28220 ft 477 kts 225°
2026-04-27 08:20 66.27521 17.92032 28226 ft 479 kts 225°
2026-04-27 08:20 66.22326 17.81884 28223 ft 478 kts 224°
2026-04-27 08:21 66.17105 17.71739 28217 ft 477 kts 225°
2026-04-27 08:21 66.11875 17.61624 28236 ft 478 kts 225°
2026-04-27 08:22 66.06618 17.51511 28228 ft 480 kts 225°
2026-04-27 08:22 66.01381 17.41494 28213 ft 481 kts 226°
2026-04-27 08:23 65.96098 17.31448 28236 ft 480 kts 227°
2026-04-27 08:23 65.90807 17.21436 28201 ft 480 kts 227°
2026-04-27 08:24 65.85513 17.11470 28250 ft 481 kts 227°
2026-04-27 08:24 65.80198 17.01515 28250 ft 482 kts 227°
2026-04-27 08:25 65.74903 16.91655 28254 ft 483 kts 227°
2026-04-27 08:25 65.69564 16.81766 28247 ft 483 kts 227°
2026-04-27 08:26 65.64219 16.71920 28207 ft 482 kts 227°
2026-04-27 08:26 65.58873 16.62125 28262 ft 482 kts 227°
2026-04-27 08:27 65.53523 16.52368 28253 ft 482 kts 227°
2026-04-27 08:27 65.48197 16.42708 28247 ft 482 kts 227°
2026-04-27 08:28 65.42826 16.33016 28263 ft 483 kts 227°
2026-04-27 08:28 65.37446 16.23363 28194 ft 483 kts 227°
2026-04-27 08:29 65.32065 16.13759 28255 ft 482 kts 227°
2026-04-27 08:29 65.26712 16.04250 28266 ft 483 kts 227°
2026-04-27 08:30 65.21319 15.94721 28259 ft 482 kts 227°
2026-04-27 08:30 65.15917 15.85227 28259 ft 483 kts 227°
2026-04-27 08:31 65.10511 15.75773 28265 ft 482 kts 227°
2026-04-27 08:31 65.05151 15.66452 28251 ft 480 kts 226°
2026-04-27 08:32 64.99762 15.57125 28271 ft 479 kts 226°
2026-04-27 08:32 64.94372 15.47839 28289 ft 480 kts 226°
2026-04-27 08:33 64.88972 15.38585 28290 ft 480 kts 226°
2026-04-27 08:33 64.83566 15.29368 28274 ft 480 kts 226°
2026-04-27 08:34 64.78194 15.20252 28281 ft 479 kts 226°
2026-04-27 08:34 64.72975 15.10750 28290 ft 466 kts 236°
2026-04-27 08:35 64.70844 15.05175 28292 ft 454 kts 244°
2026-04-27 08:35 64.69139 14.99112 28299 ft 442 kts 252°
2026-04-27 08:35 64.66045 14.86654 28279 ft 444 kts 251°
2026-04-27 08:36 64.62898 14.74336 28300 ft 446 kts 251°
2026-04-27 08:36 64.59675 14.61943 28235 ft 448 kts 250°
2026-04-27 08:37 64.56433 14.49615 28267 ft 445 kts 249°
2026-04-27 08:37 64.53199 14.37363 28299 ft 444 kts 249°
2026-04-27 08:38 64.49984 14.25224 28320 ft 445 kts 249°
2026-04-27 08:38 64.46731 14.13013 28317 ft 445 kts 249°
2026-04-27 08:39 64.43724 14.00622 28332 ft 439 kts 253°
2026-04-27 08:39 64.40909 13.88090 28316 ft 439 kts 253°
2026-04-27 08:40 64.38086 13.75654 28319 ft 440 kts 253°
2026-04-27 08:40 64.35205 13.63193 28281 ft 439 kts 252°
2026-04-27 08:41 64.32316 13.50819 28324 ft 437 kts 252°
2026-04-27 08:41 64.29424 13.38491 28335 ft 438 kts 252°
2026-04-27 08:42 64.26519 13.26169 28342 ft 438 kts 251°
2026-04-27 08:42 64.23621 13.13939 28345 ft 439 kts 251°
2026-04-27 08:43 64.20983 13.01454 28363 ft 425 kts 262°
2026-04-27 08:43 64.20259 12.94961 28363 ft 414 kts 271°
2026-04-27 08:43 64.19914 12.88454 28372 ft 410 kts 273°
2026-04-27 08:44 64.19594 12.81934 28068 ft 412 kts 273°
2026-04-27 08:44 64.19266 12.75467 27603 ft 404 kts 273°
2026-04-27 08:44 64.18931 12.69126 27080 ft 397 kts 272°
2026-04-27 08:44 64.18600 12.62978 26565 ft 391 kts 271°
2026-04-27 08:45 64.18263 12.56828 26019 ft 386 kts 271°
2026-04-27 08:45 64.17927 12.50751 25493 ft 382 kts 271°
2026-04-27 08:45 64.17591 12.44721 24976 ft 380 kts 271°
2026-04-27 08:45 64.17256 12.38751 24452 ft 376 kts 271°
2026-04-27 08:46 64.16920 12.32767 23969 ft 382 kts 271°
2026-04-27 08:46 64.16576 12.26677 23321 ft 386 kts 271°
2026-04-27 08:46 64.16226 12.20605 22752 ft 382 kts 271°
2026-04-27 08:46 64.15873 12.14612 22219 ft 377 kts 271°
2026-04-27 08:47 64.15529 12.08779 21713 ft 372 kts 271°
2026-04-27 08:47 64.15184 12.02931 21201 ft 368 kts 271°
2026-04-27 08:47 64.14842 11.97141 20673 ft 365 kts 271°
2026-04-27 08:47 64.14502 11.91400 20169 ft 363 kts 271°
2026-04-27 08:48 64.14161 11.85703 19638 ft 359 kts 270°
2026-04-27 08:48 64.13818 11.80064 19145 ft 356 kts 270°
2026-04-27 08:48 64.13341 11.74485 18631 ft 364 kts 259°
2026-04-27 08:48 64.12030 11.69378 18053 ft 383 kts 236°
2026-04-27 08:49 64.09985 11.65477 17555 ft 397 kts 215°
2026-04-27 08:49 64.07442 11.62936 17066 ft 399 kts 207°
2026-04-27 08:49 64.04840 11.60676 16548 ft 401 kts 206°
2026-04-27 08:49 64.02231 11.58459 16038 ft 400 kts 206°
2026-04-27 08:50 63.99692 11.56290 15551 ft 399 kts 206°
2026-04-27 08:50 63.97099 11.54043 15049 ft 398 kts 206°
2026-04-27 08:50 63.94516 11.51784 14306 ft 401 kts 206°
2026-04-27 08:50 63.91915 11.49491 13609 ft 400 kts 206°
2026-04-27 08:51 63.89334 11.47217 13029 ft 395 kts 205°
2026-04-27 08:51 63.86834 11.45019 12767 ft 383 kts 205°
2026-04-27 08:51 63.84397 11.42881 12598 ft 369 kts 205°
2026-04-27 08:51 63.82040 11.40816 12419 ft 357 kts 206°
2026-04-27 08:52 63.79759 11.38822 12277 ft 346 kts 206°
2026-04-27 08:52 63.77536 11.36967 12131 ft 337 kts 199°
2026-04-27 08:52 63.75217 11.36638 12007 ft 333 kts 173°
2026-04-27 08:52 63.73008 11.37953 11858 ft 325 kts 160°
2026-04-27 08:53 63.71005 11.40092 11693 ft 315 kts 138°
2026-04-27 08:53 63.69662 11.43682 11552 ft 297 kts 112°
2026-04-27 08:53 63.68974 11.47949 11290 ft 285 kts 94°
2026-04-27 08:53 63.68869 11.52305 11040 ft 274 kts 77°
2026-04-27 08:54 63.69092 11.56534 10768 ft 271 kts 76°
2026-04-27 08:54 63.68930 11.60829 10499 ft 283 kts 101°
2026-04-27 08:54 63.68293 11.65012 10254 ft 281 kts 103°
2026-04-27 08:54 63.67670 11.69174 9999 ft 280 kts 102°
2026-04-27 08:55 63.67003 11.73296 9692 ft 283 kts 112°
2026-04-27 08:55 63.65764 11.76753 9509 ft 284 kts 131°
2026-04-27 08:55 63.64392 11.79960 9226 ft 284 kts 130°
2026-04-27 08:55 63.63054 11.83142 8985 ft 284 kts 130°
2026-04-27 08:56 63.61544 11.85979 8724 ft 284 kts 153°
2026-04-27 08:56 63.59729 11.87583 8554 ft 279 kts 166°
2026-04-27 08:56 63.57830 11.87646 8347 ft 270 kts 199°
2026-04-27 08:56 63.56197 11.85799 8084 ft 260 kts 226°
2026-04-27 08:57 63.54533 11.79178 7573 ft 240 kts 265°
2026-04-27 08:57 63.54258 11.75506 7339 ft 238 kts 266°
2026-04-27 08:57 63.53989 11.71848 7097 ft 238 kts 265°
2026-04-27 08:58 63.53722 11.68258 6848 ft 236 kts 265°
2026-04-27 08:58 63.53449 11.64644 6597 ft 234 kts 264°
2026-04-27 08:58 63.53177 11.61064 6360 ft 232 kts 265°
2026-04-27 08:58 63.52877 11.57509 6103 ft 232 kts 257°
2026-04-27 08:59 63.52001 11.54502 5870 ft 235 kts 222°
2026-04-27 08:59 63.50596 11.52735 5652 ft 230 kts 205°
2026-04-27 08:59 63.49117 11.51472 5401 ft 225 kts 203°
2026-04-27 08:59 63.47670 11.50287 5154 ft 218 kts 203°
2026-04-27 09:00 63.46333 11.48984 4930 ft 206 kts 221°
2026-04-27 09:00 63.45652 11.46451 4761 ft 186 kts 270°
2026-04-27 09:00 63.45771 11.43679 4605 ft 178 kts 279°
2026-04-27 09:00 63.45791 11.40929 4413 ft 175 kts 273°
2026-04-27 09:01 63.45774 11.38253 4230 ft 170 kts 273°
2026-04-27 09:01 63.45763 11.35647 4070 ft 166 kts 274°
2026-04-27 09:01 63.45757 11.33135 3987 ft 159 kts 274°
2026-04-27 09:01 63.45753 11.30674 3875 ft 160 kts 274°
2026-04-27 09:02 63.45751 11.28182 3629 ft 164 kts 274°
2026-04-27 09:02 63.45748 11.25642 3350 ft 162 kts 274°
2026-04-27 09:02 63.45745 11.23159 3134 ft 160 kts 273°
2026-04-27 09:02 63.45744 11.20671 2889 ft 161 kts 272°
2026-04-27 09:03 63.45743 11.18159 2630 ft 162 kts 272°
2026-04-27 09:03 63.45742 11.15638 2372 ft 163 kts 272°
2026-04-27 09:03 63.45742 11.13090 2116 ft 163 kts 271°
2026-04-27 09:03 63.45742 11.10608 1849 ft 155 kts 271°
2026-04-27 09:04 63.45743 11.08245 1564 ft 149 kts 271°
2026-04-27 09:04 63.45744 11.06016 1332 ft 142 kts 270°
2026-04-27 09:04 63.45745 11.03863 1129 ft 138 kts 270°
2026-04-27 09:04 63.45748 11.01744 902 ft 133 kts 270°
2026-04-27 09:05 63.45756 10.99648 670 ft 136 kts 270°
2026-04-27 09:05 63.45758 10.97536 432 ft 134 kts 269°
2026-04-27 09:05 63.45758 10.95474 233 ft 132 kts 269°
2026-04-27 09:05 63.45757 10.93451 59 ft 126 kts 268°
2026-04-27 09:06 63.45761 10.91725 37 ft 90 kts 270°
2026-04-27 09:06 63.45762 10.90813 33 ft 22 kts 265°
2026-04-27 09:06 63.45722 10.90499 30 ft 15 kts 243°
2026-04-27 09:06 63.45667 10.90386 32 ft 7 kts 199°
2026-04-27 09:07 63.45620 10.90389 30 ft 7 kts 153°
2026-04-27 09:07 63.45598 10.90480 32 ft 7 kts 97°
2026-04-27 09:07 63.45598 10.90585 33 ft 7 kts 90°
2026-04-27 09:07 63.45597 10.90688 33 ft 7 kts 90°
2026-04-27 09:08 63.45597 10.90796 34 ft 8 kts 90°
2026-04-27 09:08 63.45597 10.90935 34 ft 10 kts 90°
2026-04-27 09:08 63.45596 10.91119 34 ft 13 kts 90°
2026-04-27 09:08 63.45596 10.91337 37 ft 14 kts 90°
2026-04-27 09:09 63.45596 10.91570 38 ft 16 kts 90°
2026-04-27 09:09 63.45595 10.91839 38 ft 18 kts 90°
2026-04-27 09:09 63.45595 10.92132 40 ft 19 kts 90°
2026-04-27 09:09 63.45593 10.92329 40 ft 7 kts 89°
2026-04-27 09:10 63.45575 10.92413 40 ft 7 kts 164°
2026-04-27 09:10 63.45525 10.92429 40 ft 7 kts 173°
2026-04-27 09:10 63.45472 10.92432 41 ft 8 kts 180°
2026-04-27 09:10 63.45417 10.92432 41 ft 8 kts 180°
2026-04-27 09:11 63.45386 10.92409 41 ft 3 kts 238°
2026-04-27 09:11 63.45384 10.92339 40 ft 6 kts 270°
2026-04-27 09:11 63.45385 10.92282 38 ft 2 kts 270°
2026-04-27 09:11 63.45385 10.92255 38 ft 1 kts 270°